Regional Weather Roundup
Issued by NWS

Home | Current Version | Previous Version | Text Only | Print | Product List | Glossary On
Versions: 1 2 3 4 5 6 7 8 9 10 11 12 13 14 15 16 17 18 19 20 21 22 23 24 25 26 27 28 29 30 31 32 33 34 35 36 37 38 39 40 41 42 43 44 45 46 47 48 49 50
000
ASUS45 KABQ 301510
RWRNM
NEW MEXICO REGIONAL WEATHER ROUNDUP
NATIONAL WEATHER SERVICE ALBUQUERQUE NM
900 AM MDT THU JUL 30 2015

NOTE: "FAIR" MEANS FEW OR NO CLOUDS BELOW 12,000 FEET AGL WITH NO
       SIGNIFICANT WEATHER OR OBSTRUCTIONS TO VISION.

      THIS PRODUCT IS RELEASED AS TWO VERSIONS.  ONE VERSION NEAR
      THE TOP OF THE HOUR CONTAINING PRELIMINARY DATA FROM ALBUQUERQUE
      AND OTHER STATIONS.  A FINAL VERSION WITH ADDITIONAL DATA IS
      ISSUED ABOUT 10 MINUTES AFTER THE HOUR.

NMZ501-503-504-510>518-301600-
NORTHWEST PLATEAU/NORTHCENTRAL MOUNTAINS

CITY           SKY/WX    TMP DP  RH WIND       PRES   REMARKS
FARMINGTON     SUNNY     70  52  52 E6        30.38R
LOS ALAMOS     CLOUDY    60  55  81 SW3       30.52S
SANTA FE       CLOUDY    63  57  81 CALM      30.46R
TAOS           CLOUDY    61  46  59 CALM      30.53R
ANGEL FIRE     PTSUNNY   56  51  85 CALM      30.59S

$$
NMZ402-403-502-505>509-301600-
WESTCENTRAL MOUNTAINS/SOUTHWEST MOUNTAINS

CITY           SKY/WX    TMP DP  RH WIND       PRES   REMARKS
GALLUP         CLOUDY    64  59  83 E7        30.43R
GRANTS         CLOUDY    61  59  93 SE7       30.48R
SILVER CITY      N/A     66  59  77 E9        30.39S

$$
NMZ407-409-411-412-301600-
SOUTHERN DESERTS

CITY           SKY/WX    TMP DP  RH WIND       PRES   REMARKS
LORDSBURG      CLOUDY    68  63  83 SE13G21   30.29S
DEMING         CLOUDY    70  63  78 E12       30.31R
LAS CRUCES     CLOUDY    66  63  88 N7        30.31F
HOLLOMAN AFB   CLOUDY    72  63  71 E3        30.32R
ALAMOGORDO     CLOUDY    72  63  73 SE3       30.35R
T OR C         CLOUDY    67  62  84 NW5       30.36R

$$
NMZ519>523-301600-
CENTRAL VALLEYS/CENTRAL HIGHLANDS

CITY           SKY/WX    TMP DP  RH WIND       PRES   REMARKS
ALBUQUERQUE    CLOUDY    68  58  70 CALM      30.40R
DOUBLE EAGLE   PTSUNNY   64  61  88 N6        30.43S
MORIARTY ARPT    N/A     64  56  77 E3        30.46S
CLINES CORNERS CLOUDY    57  56  96 E8        30.48S FOG
BELEN          LGT RAIN  65  64  94 NE3       30.39S
SOCORRO        CLOUDY    66  61  83 CALM      30.37R

$$
NMZ524>526-539-540-301600-
SOUTHCENTRAL MOUNTAINS

CITY           SKY/WX    TMP DP  RH WIND       PRES   REMARKS
RUIDOSO          N/A    N/A N/A N/A MISG        N/A

$$
NMZ527>531-301600-
NORTHEAST HIGHLANDS/NORTHEAST PLAINS

CITY           SKY/WX    TMP DP  RH WIND       PRES   REMARKS
LAS VEGAS      CLOUDY    60  56  86 N5        30.50S
RATON          CLOUDY    61  56  83 CALM      30.46F
CLAYTON        CLOUDY    70  60  70 W12       30.38R

$$
NMZ532>537-301600-
EASTCENTRAL PLAINS

CITY           SKY/WX    TMP DP  RH WIND       PRES   REMARKS
TUCUMCARI      CLOUDY    67  64  90 N10       30.32F
CANNON AFB     MOSUNNY   70  64  81 N10       30.31S
CLOVIS AIRPORT MOSUNNY   72  61  68 N18       30.32F

$$
NMZ028-029-538-301600-
SOUTHEAST PLAINS

CITY           SKY/WX    TMP DP  RH WIND       PRES   REMARKS
ROSWELL        SUNNY     75  61  61 N17       30.29R
ARTESIA        MOSUNNY   75  64  69 N17G23    30.29R
CARLSBAD       SUNNY     78  63  59 NW16      30.25R
HOBBS          MOSUNNY   77  66  69 N13       30.28R


$$


USA.gov is the U.S. government's official web portal to all federal, state and local government web resources and services.